sat.trackr.live / text

‹ back to catalog

STARLINK-34494

NORAD 64611 · 2025-137T

PAYLOAD ACTIVE UNKNOWN

§ Identity

Operator
Country
US
Launch date
2025-06-25
Launch site
AFETR
Launch vehicle
Mass (kg)
RCS (m²)

Purposes: comms

External: N2YO · Heavens-Above · Gunter

§ Orbital elements

Epoch: 2026-05-24T23:18:38.528928Z

Period
94.11 min
Inclination
53.1600°
Eccentricity
0.0001096
Mean motion
15.30196247 rev/d
Perigee alt
474.5 km
Apogee alt
476.0 km
Semi-major
6,853.4 km
B*
2.1892e-4
RAAN
340.9356°
Arg perigee
100.4955°
Mean anomaly
259.6169°
Rev number
5,241

§ Raw data

STARLINK-344941 64611U 25137T   26144.97127927  .00006129  00000+0  21892-3 0  99992 64611  53.1600 340.9356 0001096 100.4955 259.6169 15.30196247 52413

JSON: /api/v1/satellites/64611 · /tle

For live sub-satellite position, see the globe view (requires WebGL).

§ Visibility from observer

Set your observer location to see the next 7 days of passes ≥ 10°. The values pass through the URL so the page stays shareable.

No JS? Fill the form by hand. The geolocation button needs JavaScript.